Location: Table Mountain
(47.2500°N, 120.5778°W)
Time: 17:37:19
(UTC-07:00)

Envisat - Pass Details

Date: 13 October 2017
Orbit: 764 x 766 km, 98.2° (Epoch: 22 October)

Event Time Altitude Azimuth Distance (km) Brightness Sun altitude
Exits shadow 21:17:25 46° 249° (WSW) 1,023 3.8 -30.8°
Maximum altitude 21:17:45 47° 261° (W) 1,012 3.8 -30.8°
Drops below altitude 10° 21:22:39 10° 335° (NNW) 2,309 6.0 -31.6°
Sets 21:25:04 0° 342° (NNW) 3,240 6.8 -32.0°
